{"data":{"norad_id":67372,"intl_designator":"2026-004K","name":"ICEYE-X63","alt_names":[],"object_type":"PAYLOAD","status":"ACTIVE","operator":null,"country":"FIN","launch_date":"2026-01-11","launch_site_code":"AFWTR","launch_vehicle":null,"mission":null,"orbit_class":"UNKNOWN","rcs_meters":null,"size_class":null,"mass_kg":null,"dimensions":null,"purposes":[],"wikipedia_slug":null,"has_3d_model":false,"image_url":null,"decayed_at":null,"tle_current":{"epoch":"2026-05-24T22:53:08.669184Z","epoch_age_seconds":85847,"freshness":"FRESH","line1":"1 67372U 26004K   26144.95357256  .00000757  00000+0  87846-4 0  9991","line2":"2 67372  97.7999 143.9585 0003736 184.6622 175.4561 14.88250334 19849","mean_motion":14.88250334,"eccentricity":0.0003736,"inclination_deg":97.7999,"raan_deg":143.9585,"arg_perigee_deg":184.6622,"mean_anomaly_deg":175.4561,"bstar":8.7846e-5,"rev_number":1984,"period_min":96.757915459672,"perigee_km":600.79391870111,"apogee_km":606.0105248076,"semimajor_km":6981.5392217544,"source":"CELESTRAK","updated_at":"2026-05-25T13:38:06.928934Z"}}}